Date,TemperatureHighF,TemperatureAvgF,TemperatureLowF,DewpointHighF,DewpointAvgF,DewpointLowF,HumidityHigh,HumidityAvg,HumidityLow,PressureMaxIn,PressureMinIn,WindSpeedMaxMPH,WindSpeedAvgMPH,GustSpeedMaxMPH,PrecipitationSumIn
2013-1-1,29.8,27.6,26.2,22.4,20.6,18.5,84,75,68,30.22,30.11,11,2,11,0.00
2013-1-2,29.7,28.4,27.3,21.8,20.2,18.0,76,71,66,30.20,30.06,16,4,16,0.00
2013-1-3,30.6,27.8,25.3,20.9,18.6,17.0,80,68,64,30.06,29.95,11,3,11,0.00
2013-1-4,33.6,27.4,24.8,25.0,20.9,17.7,85,76,64,30.02,29.93,9,2,9,0.02
2013-1-5,29.5,27.7,26.1,25.8,22.7,19.9,87,81,75,29.99,29.84,4,1,4,0.00
2013-1-6,39.2,30.3,25.3,31.6,25.9,21.2,88,83,71,29.85,29.67,6,1,6,0.12
2013-1-7,52.2,42.0,31.5,46.2,36.6,28.3,96,82,69,29.73,29.55,27,6,27,0.05
2013-1-8,51.4,44.4,38.7,46.2,40.4,36.3,93,86,71,29.76,29.48,17,3,18,0.11
2013-1-9,44.2,38.9,33.6,40.7,35.0,29.5,93,86,77,29.54,29.28,20,4,20,0.09
2013-1-10,43.0,36.5,32.9,33.1,29.1,24.4,87,74,63,29.63,29.51,17,6,17,0.00
2013-1-11,40.1,32.0,25.2,27.9,23.6,18.7,81,71,56,29.88,29.63,11,3,11,0.00
2013-1-12,38.3,26.5,20.1,23.1,18.0,15.0,81,70,50,29.97,29.86,7,2,7,0.00
2013-1-13,32.5,22.8,16.5,22.0,15.3,9.4,79,72,63,30.06,29.97,11,2,11,0.00
2013-1-14,40.3,30.6,19.8,29.5,23.0,14.3,82,73,58,30.06,29.95,27,7,27,0.01
2013-1-15,44.1,34.8,30.2,34.2,29.3,26.0,85,80,68,30.21,30.06,16,3,16,0.00
2013-1-16,34.0,31.4,29.1,29.0,26.7,24.3,86,83,80,30.18,30.13,11,3,11,0.00
2013-1-17,29.8,28.4,27.5,24.3,22.6,21.2,82,78,75,30.18,30.01,9,3,9,0.00
2013-1-18,43.5,34.0,27.9,29.1,25.0,21.0,82,70,56,30.01,29.87,8,2,8,0.00
2013-1-19,29.5,28.3,27.0,25.2,22.9,20.7,85,80,76,30.08,29.92,9,3,11,0.00
2013-1-20,29.1,27.1,26.1,23.0,20.5,19.4,78,76,73,30.15,30.04,10,3,10,0.00
2013-1-21,27.5,26.5,25.5,20.5,19.5,18.6,77,75,73,30.04,29.93,8,2,8,0.00
2013-1-22,27.0,25.8,25.0,19.4,18.6,17.9,75,74,72,29.94,29.78,10,3,10,0.00
2013-1-23,29.7,26.7,25.3,24.4,19.5,17.6,84,74,67,29.80,29.61,10,2,10,0.00
2013-1-24,41.2,31.9,26.8,34.7,26.5,21.2,85,80,73,29.84,29.76,8,2,8,0.09
2013-1-25,37.8,34.9,32.4,34.4,30.7,27.9,88,85,84,29.76,29.55,5,1,5,0.11
2013-1-26,43.3,36.7,33.3,38.8,32.9,29.5,91,86,80,29.64,29.53,13,2,13,0.04
2013-1-27,42.8,38.0,36.0,35.1,32.4,30.9,86,80,67,29.69,29.61,13,5,13,0.00
2013-1-28,41.5,39.4,36.1,34.8,33.3,30.9,85,79,74,29.67,29.61,20,7,20,0.21
2013-1-29,49.3,44.1,39.7,38.8,36.6,33.6,80,75,66,29.95,29.65,32,11,32,0.21
2013-1-30,49.3,45.2,42.1,42.0,39.3,36.1,87,80,71,29.98,29.93,28,6,28,0.05
2013-1-31,50.5,46.0,43.0,41.6,39.3,37.8,85,78,66,29.98,29.90,18,5,18,0.01
2013-2-1,58.5,43.9,34.5,40.7,35.7,28.8,88,74,45,30.02,29.90,13,3,13,0.00
2013-2-2,52.5,39.4,30.7,38.4,31.7,25.9,83,74,57,30.05,29.88,12,2,12,0.00
2013-2-3,48.9,39.9,29.5,38.7,33.3,25.0,88,78,64,29.89,29.78,14,4,14,0.00
2013-2-4,51.1,43.3,38.3,38.9,36.0,33.8,84,76,61,29.79,29.55,8,2,8,0.00
2013-2-5,49.3,42.2,36.1,41.0,36.7,30.3,85,81,71,29.61,29.50,13,3,13,0.17
2013-2-6,48.4,42.3,37.8,41.0,36.8,34.0,86,81,69,29.69,29.49,8,2,8,0.01
2013-2-7,49.1,39.4,30.0,35.6,31.4,24.2,87,74,49,29.71,29.48,17,4,17,0.02
2013-2-8,43.9,34.4,25.9,32.5,26.9,20.0,82,74,62,29.81,29.71,21,5,21,0.00
2013-2-9,45.7,39.7,33.1,34.1,31.0,26.4,79,71,60,29.85,29.75,21,8,21,0.00
2013-2-10,48.2,38.5,29.3,35.4,30.7,25.1,85,74,59,29.91,29.82,20,4,20,0.00
2013-2-11,49.3,42.2,37.2,37.0,32.8,28.4,82,69,56,29.93,29.82,28,8,28,0.00
2013-2-12,53.8,46.2,41.9,41.2,38.9,36.2,85,76,56,30.00,29.92,30,6,30,0.00
2013-2-13,49.1,48.1,47.7,40.0,39.4,38.9,73,71,70,29.94,29.92,29,12,30,0.04
2013-2-15,56.7,42.6,33.1,40.7,34.4,28.7,86,74,53,30.11,29.85,11,3,11,0.00
2013-2-16,48.7,40.6,33.1,40.5,34.1,28.5,87,78,66,29.85,29.75,11,4,11,0.01
2013-2-17,46.9,40.2,32.2,31.8,28.2,24.8,74,63,46,29.82,29.68,13,5,13,0.00
2013-2-18,46.4,36.7,30.7,30.9,27.1,24.1,78,68,52,29.68,29.37,7,2,7,0.00
2013-2-19,53.6,38.5,28.8,31.6,26.8,22.8,78,64,33,29.56,29.33,9,3,9,0.00
2013-2-20,46.8,37.7,30.0,33.7,29.9,24.6,83,74,57,29.65,29.57,10,3,10,0.00
2013-2-21,43.3,39.7,36.5,35.0,33.7,30.9,86,79,63,29.71,29.65,13,5,13,0.04
2013-2-22,43.5,41.1,37.0,38.2,34.8,27.4,85,79,58,29.70,29.39,34,6,34,0.35
2013-2-23,45.5,39.6,36.0,33.9,30.3,27.5,76,70,56,29.97,29.56,24,8,24,0.04
2013-2-24,49.8,40.5,36.9,33.5,30.6,27.5,77,68,48,29.98,29.65,15,4,15,0.00
2013-2-25,44.2,38.7,36.1,36.6,32.3,28.7,86,78,68,29.91,29.57,26,7,26,0.40
2013-2-26,47.3,40.1,35.1,35.0,31.4,27.7,82,71,57,29.95,29.84,14,4,14,0.00
2013-2-27,51.8,41.6,32.5,38.5,33.9,27.7,85,75,53,29.90,29.84,11,2,11,0.00
2013-2-28,51.3,46.8,41.9,46.7,42.4,38.0,87,85,77,29.99,29.82,11,2,11,0.38
2013-3-1,58.5,51.2,45.0,49.0,45.6,40.7,87,81,63,30.02,29.91,11,3,11,0.06
2013-3-2,54.5,46.4,41.9,46.2,40.7,33.9,87,81,66,29.91,29.68,17,4,17,0.05
2013-3-3,50.2,41.6,31.8,34.2,29.7,25.0,76,63,43,29.85,29.75,17,6,17,0.00
2013-3-4,56.7,39.1,27.0,30.0,22.3,15.2,81,55,22,29.85,29.60,19,3,19,0.00
2013-3-5,39.9,35.8,32.0,35.5,28.1,20.3,87,74,56,29.60,29.35,7,2,7,0.05
2013-3-6,37.0,35.4,33.6,32.7,31.0,29.5,85,84,82,29.35,29.20,4,1,4,0.38
2013-3-7,57.0,45.1,32.5,39.9,32.5,27.0,89,64,37,29.66,29.54,8,3,8,0.01
2013-3-8,61.0,42.0,28.8,36.5,29.9,24.6,85,65,30,29.79,29.62,12,3,12,0.00
2013-3-9,59.5,43.5,28.8,37.1,30.2,24.8,85,63,31,30.05,29.79,22,5,22,0.00
2013-3-10,54.3,44.5,38.1,40.8,36.1,31.3,86,73,59,30.05,29.96,14,4,14,0.00
2013-3-11,52.2,47.1,43.2,44.4,42.1,39.6,89,83,71,29.99,29.82,13,4,13,0.00
2013-3-12,60.6,52.0,47.3,48.1,45.2,42.1,90,78,57,29.82,29.74,20,4,20,0.00
2013-3-13,65.1,53.2,46.0,47.2,43.6,40.4,83,71,50,29.81,29.70,13,4,13,0.00
2013-3-14,63.7,51.5,44.4,46.2,41.5,37.8,83,70,45,29.77,29.64,17,4,17,0.00
2013-3-15,61.3,53.0,48.2,47.5,44.5,40.6,86,74,54,29.81,29.72,13,4,13,0.00
2013-3-16,50.4,45.6,36.1,43.7,39.3,29.4,86,79,65,29.73,29.51,26,6,26,0.27
2013-3-17,44.8,39.3,34.9,33.2,30.9,27.7,80,72,62,29.81,29.62,22,8,22,0.08
2013-3-18,50.9,42.0,33.8,34.9,31.5,26.7,76,67,52,29.81,29.77,22,6,22,0.00
2013-3-19,46.4,38.6,31.6,34.9,29.9,25.3,86,72,51,29.80,29.37,11,2,11,0.15
2013-3-20,53.1,41.0,36.0,42.2,33.9,28.3,88,76,53,29.66,29.18,36,7,36,0.50
2013-3-21,45.3,38.5,35.4,34.4,30.2,26.3,79,72,58,29.81,29.65,24,9,24,0.06
2013-3-22,48.4,38.7,33.1,31.0,27.5,23.6,75,64,46,29.94,29.79,20,7,20,0.00
2013-3-23,54.9,38.4,30.6,31.1,26.3,15.9,80,64,25,29.96,29.85,10,3,10,1.71
2013-3-24,49.5,39.0,29.8,29.7,24.9,19.6,78,59,32,29.90,29.75,12,3,12,0.00
2013-3-25,57.6,45.1,33.3,37.2,28.1,22.8,68,53,32,29.75,29.55,17,4,17,0.01
2013-3-26,55.6,45.8,39.0,38.9,35.4,30.9,78,67,47,29.62,29.55,8,3,8,0.00
2013-3-27,62.4,50.3,41.5,43.7,40.2,36.8,83,69,43,29.60,29.50,12,2,12,0.00
2013-3-28,63.3,51.7,44.1,48.0,42.4,40.1,86,72,44,29.72,29.59,14,3,14,0.01
2013-3-29,69.3,55.6,44.6,46.2,42.3,37.8,78,63,36,29.81,29.72,11,3,11,0.00
2013-3-30,73.8,56.7,41.7,47.8,42.4,37.2,85,62,34,29.84,29.65,16,4,16,0.00
2013-3-31,73.4,57.6,42.6,46.6,41.6,37.7,84,59,31,29.68,29.50,15,4,15,0.00
2013-4-1,64.0,57.5,52.0,49.3,47.0,45.3,81,69,54,29.71,29.56,24,8,24,0.00
2013-4-2,64.8,56.9,51.1,48.0,45.5,43.0,81,66,51,29.77,29.70,19,8,19,0.00
2013-4-3,66.2,55.9,44.1,48.3,44.8,40.1,88,68,44,29.74,29.54,16,3,16,0.01
2013-4-4,58.8,53.5,50.5,53.2,47.7,43.8,90,81,72,29.54,29.33,12,3,12,0.14
2013-4-5,58.3,51.7,47.7,50.2,46.5,44.5,89,82,70,29.54,29.44,16,5,16,0.09
2013-4-6,50.7,46.7,41.5,45.3,42.4,38.8,91,85,71,29.59,29.39,25,4,25,0.41
2013-4-7,47.3,42.5,38.1,40.8,38.2,35.7,93,85,71,29.48,29.17,30,6,30,0.84
2013-4-8,53.6,46.1,41.0,40.9,37.6,34.2,83,72,61,29.85,29.48,21,8,21,0.01
2013-4-9,58.5,47.0,35.1,42.7,38.3,31.0,89,73,53,29.94,29.81,21,5,21,0.00
2013-4-10,59.2,51.1,45.1,48.4,40.8,34.1,89,68,53,29.85,29.62,34,9,34,0.71
2013-4-11,55.2,47.6,43.0,39.6,36.3,33.4,74,65,55,29.86,29.75,24,9,24,0.00
2013-4-12,54.9,44.3,33.6,40.7,35.3,28.9,85,72,47,29.75,29.36,23,5,23,0.01
2013-4-13,50.2,42.7,37.9,39.4,33.0,28.3,84,69,52,29.61,29.37,29,12,29,0.48
2013-4-14,54.0,43.8,39.2,37.5,34.2,31.6,84,70,45,29.62,29.48,21,8,21,0.01
2013-4-15,51.3,42.5,35.2,39.3,34.7,29.7,85,74,56,29.73,29.51,15,4,15,0.02
2013-4-16,54.0,43.2,33.3,37.9,33.2,28.7,85,69,43,29.98,29.73,14,3,14,0.00
2013-4-17,59.4,44.9,30.6,37.8,32.0,24.8,80,62,37,30.06,29.97,20,5,20,0.00
2013-4-18,57.7,50.2,45.0,44.1,38.6,34.8,84,65,50,30.02,29.87,19,7,19,0.00
2013-4-19,58.8,51.5,47.8,47.4,44.4,42.2,86,77,64,29.87,29.69,27,8,27,0.12
2013-4-20,58.6,51.8,47.5,42.7,39.9,37.8,79,64,49,29.88,29.81,49,10,49,0.04
2013-4-21,56.7,49.1,44.2,41.9,39.0,36.8,79,68,56,29.88,29.77,24,8,24,0.00
2013-4-22,62.8,49.6,34.9,38.1,29.9,19.4,84,52,21,30.05,29.88,18,5,18,0.00
2013-4-23,68.0,50.2,33.8,34.2,29.2,20.6,75,48,23,30.00,29.73,10,3,10,0.00
2013-4-24,74.3,55.6,37.0,37.8,30.4,21.1,74,44,14,29.92,29.59,16,3,16,0.00
2013-4-25,74.7,61.2,48.9,45.3,39.8,36.6,65,47,30,29.71,29.58,22,6,22,0.02
2013-4-26,78.3,63.7,49.5,46.7,40.4,31.0,78,47,18,29.80,29.70,20,6,20,0.00
2013-4-27,70.7,60.2,49.1,43.2,38.1,24.8,72,46,19,29.80,29.74,27,8,27,0.22
2013-4-28,63.7,56.1,50.0,48.3,42.9,38.1,84,62,41,29.82,29.60,26,9,26,0.15
2013-4-29,59.0,51.3,43.0,45.6,35.7,25.6,83,57,29,29.73,29.55,33,13,33,0.63
2013-4-30,55.9,46.6,41.0,36.4,31.8,27.2,73,57,35,29.99,29.73,24,9,24,0.00
2013-5-1,68.7,50.8,32.2,36.3,28.8,20.3,79,49,16,30.14,29.99,17,4,17,0.00
2013-5-2,77.7,58.4,39.9,41.7,33.4,27.3,68,43,18,30.14,29.83,14,3,14,0.00
2013-5-3,80.6,64.5,46.9,45.1,40.3,33.2,74,45,22,29.90,29.72,13,3,13,0.00
2013-5-4,82.6,67.2,50.0,44.1,35.3,24.1,70,37,12,29.77,29.56,18,5,18,0.00
2013-5-5,84.7,69.5,52.9,44.3,37.4,29.5,53,32,19,29.56,29.36,23,5,23,0.00
2013-5-6,81.3,67.5,51.4,52.5,46.0,39.1,63,47,32,29.47,29.31,17,4,17,0.00
2013-5-7,76.3,66.0,55.6,51.9,49.0,46.0,70,55,39,29.55,29.40,25,11,25,0.11
2013-5-8,67.1,60.6,53.1,51.8,49.6,46.9,81,68,55,29.68,29.55,34,14,34,0.73
2013-5-9,76.5,65.0,54.1,54.7,52.0,48.8,82,64,44,29.72,29.62,21,9,21,0.00
2013-5-10,82.9,69.9,55.0,55.3,51.9,47.3,83,55,33,29.76,29.65,17,5,17,0.00
2013-5-11,86.7,73.1,62.2,57.7,53.1,50.0,68,51,33,29.76,29.57,21,5,21,0.00
2013-5-12,72.7,65.1,58.5,57.7,54.2,49.8,87,69,50,29.70,29.62,27,8,27,0.08
2013-5-13,67.8,59.0,51.8,54.5,49.8,39.2,89,72,53,29.79,29.60,26,8,26,0.08
2013-5-14,67.5,56.4,45.1,42.4,36.9,21.5,75,51,19,29.80,29.66,18,6,18,0.00
2013-5-15,60.1,53.7,47.7,47.5,43.7,38.7,83,69,59,29.70,29.61,16,5,16,0.00
2013-5-16,68.2,56.9,48.6,52.0,47.1,44.0,86,71,49,29.62,29.47,19,5,19,0.00
2013-5-17,64.8,55.6,49.3,49.0,45.7,40.3,94,71,45,29.67,29.55,22,7,22,0.27
2013-5-18,57.9,53.4,50.0,47.4,45.3,43.1,84,74,62,29.84,29.66,19,7,19,0.01
2013-5-19,63.5,57.4,50.9,48.5,46.6,45.1,84,68,54,29.92,29.83,26,8,26,0.00
2013-5-20,73.9,59.8,42.3,49.6,44.6,39.0,89,60,35,29.90,29.46,18,5,18,0.00
2013-5-21,60.3,50.5,41.0,46.0,41.2,36.7,89,71,51,29.51,29.38,21,8,21,0.18
2013-5-22,46.2,43.9,41.5,42.0,39.3,35.9,92,84,75,29.57,29.48,19,4,19,0.17
2013-5-23,52.7,46.2,40.6,45.8,41.9,38.5,93,85,73,29.63,29.56,11,3,11,0.07
2013-5-24,60.1,50.6,44.4,45.7,43.8,42.3,93,79,56,29.67,29.58,18,5,18,0.11
2013-5-25,67.8,55.8,43.3,47.4,44.8,39.7,88,68,44,29.65,29.53,18,5,18,0.00
2013-5-26,66.2,57.1,49.6,51.8,47.5,44.0,92,72,50,29.61,29.53,21,6,21,0.11
2013-5-27,56.5,51.9,47.7,53.3,48.2,43.4,92,87,71,29.59,29.36,9,3,9,0.30
2013-5-28,64.8,55.9,50.0,49.5,46.7,43.0,86,72,53,29.52,29.37,61,6,61,0.01
2013-5-29,61.2,52.7,48.2,50.2,47.2,44.1,91,82,60,29.61,29.28,25,6,25,0.66
2013-5-30,63.7,53.8,45.9,46.1,44.1,42.0,89,71,51,29.83,29.60,18,7,18,0.02
2013-5-31,69.8,57.9,45.1,48.1,45.1,41.2,87,65,41,29.91,29.79,17,6,17,0.00
2013-6-1,76.1,61.4,46.8,52.5,47.9,42.7,86,63,39,29.82,29.59,17,5,17,0.00
2013-6-2,71.8,62.5,52.9,51.6,48.6,44.5,83,62,44,29.63,29.57,24,8,24,0.00
2013-6-3,77.0,62.1,49.8,53.1,49.4,45.7,87,65,40,29.66,29.56,21,7,21,0.00
2013-6-4,85.8,68.8,49.5,52.8,47.1,40.5,84,51,23,29.70,29.58,16,4,16,0.00
2013-6-5,86.0,70.1,54.1,57.7,51.2,45.3,73,53,29,29.66,29.53,17,5,17,0.00
2013-6-6,85.8,70.9,59.2,60.3,55.8,53.6,83,61,35,29.60,29.51,23,8,23,0.00
2013-6-7,78.4,68.4,59.2,53.4,45.7,31.2,69,46,22,29.69,29.59,24,10,24,0.00
2013-6-8,80.2,65.8,52.3,52.0,46.5,37.7,86,55,26,29.70,29.61,22,11,22,0.00
2013-6-9,72.9,62.7,52.9,52.0,47.7,44.3,82,60,38,29.62,29.52,25,12,25,0.01
2013-6-10,70.5,59.6,50.2,48.4,45.5,40.7,82,61,36,29.56,29.43,24,11,24,0.00
2013-6-11,61.7,55.8,51.4,46.7,43.9,40.9,74,65,52,29.71,29.50,25,8,25,0.00
2013-6-12,66.0,57.0,48.6,46.6,44.9,42.0,83,65,46,29.73,29.69,21,8,21,0.00
2013-6-13,63.9,56.4,49.3,49.0,46.6,44.1,87,70,55,29.83,29.72,21,8,21,0.06
2013-6-14,71.1,60.2,51.8,51.1,47.1,43.4,80,63,45,29.83,29.60,24,7,24,0.00
2013-6-15,84.0,66.7,49.3,55.7,48.5,40.2,84,56,24,29.60,29.47,17,4,17,0.09
2013-6-16,76.5,65.1,56.5,55.0,52.3,50.8,84,65,44,29.67,29.56,29,9,29,0.04
2013-6-17,79.2,67.2,58.5,53.3,51.0,46.8,77,58,33,29.67,29.50,21,8,21,0.00
2013-6-18,72.3,62.2,54.5,50.1,46.4,39.5,77,58,32,29.59,29.48,23,9,23,0.00
2013-6-19,65.5,58.2,54.0,49.1,46.7,43.8,81,66,52,29.65,29.51,22,10,22,0.01
2013-6-20,64.2,57.4,52.7,50.9,47.4,45.4,82,70,53,29.70,29.61,21,8,21,0.01
2013-6-21,68.5,60.7,52.9,51.1,48.8,45.8,84,66,51,29.74,29.68,21,8,21,0.00
2013-6-22,80.8,65.6,50.5,53.3,50.0,44.9,87,60,31,29.71,29.46,12,4,12,0.00
2013-6-23,72.1,64.8,60.1,59.3,55.9,52.2,94,74,55,29.47,29.27,11,2,11,0.09
2013-6-24,68.0,60.5,56.3,58.7,52.8,49.7,95,77,55,29.33,29.25,17,5,17,0.02
2013-6-25,66.6,58.9,54.7,59.0,54.7,51.8,93,86,74,29.50,29.32,8,2,8,0.27
2013-6-26,72.3,61.5,54.9,57.9,54.8,52.9,95,80,53,29.68,29.50,11,2,11,0.08
2013-6-27,81.7,69.0,57.6,60.4,57.0,53.3,86,68,47,29.77,29.66,18,4,18,0.00
2013-6-28,94.1,77.2,60.6,64.6,60.1,55.3,85,59,36,29.78,29.59,12,3,12,0.00
2013-6-29,88.7,76.2,66.6,63.4,59.1,57.0,73,57,36,29.66,29.55,27,8,27,0.00
2013-6-30,100.0,81.9,63.1,64.4,60.0,54.5,78,51,25,29.61,29.43,13,3,13,0.00
2013-7-1,88.3,78.4,67.6,66.2,63.4,59.8,80,61,47,29.58,29.50,21,6,21,0.00
2013-7-2,92.5,78.5,67.6,65.5,61.9,57.1,79,59,34,29.62,29.55,21,8,21,0.00
2013-7-3,84.9,72.3,61.9,58.5,53.2,41.1,76,54,24,29.68,29.56,24,11,25,0.05
2013-7-4,75.0,65.5,57.0,54.0,50.9,46.2,78,60,47,29.65,29.55,24,13,24,0.14
2013-7-5,72.7,64.0,57.4,53.5,50.2,47.0,72,61,51,29.59,29.49,27,12,27,0.12
2013-7-6,75.4,65.6,55.2,58.0,54.0,50.2,85,67,52,29.54,29.40,26,9,26,0.00
2013-7-7,78.1,67.2,58.6,60.0,56.2,54.3,86,69,52,29.50,29.41,26,10,27,0.07
2013-7-8,81.5,68.2,57.0,59.0,55.1,52.1,89,65,41,29.63,29.50,24,11,24,0.21
2013-7-9,88.3,73.8,57.6,62.9,58.1,53.1,85,60,40,29.68,29.53,19,5,19,0.00
2013-7-10,83.7,71.4,60.6,59.1,54.3,50.0,76,57,35,29.61,29.47,23,8,23,0.00
2013-7-11,76.3,64.5,53.8,51.1,48.1,44.0,76,57,39,29.61,29.51,24,11,24,0.05
2013-7-12,75.4,63.7,53.8,52.3,48.7,46.3,80,60,42,29.66,29.54,24,10,24,0.01
2013-7-13,84.4,67.9,52.0,53.0,45.7,22.4,83,52,12,29.75,29.60,14,4,14,0.00
2013-7-14,89.1,81.7,69.3,57.2,50.1,41.6,53,34,25,29.63,29.51,16,7,16,0.00
2013-7-15,92.3,74.4,56.7,51.7,47.3,40.8,70,42,18,29.59,29.41,18,5,18,0.00
2013-7-16,84.7,74.9,63.0,58.5,49.2,40.9,56,41,24,29.52,29.40,13,3,13,0.00
2013-7-17,81.1,70.1,61.2,57.1,54.3,45.9,77,59,31,29.72,29.51,22,9,22,0.01
2013-7-18,83.8,69.8,57.0,57.5,55.3,52.9,87,62,38,29.75,29.60,23,9,23,0.00
2013-7-19,81.7,70.4,58.5,61.8,57.5,53.7,85,65,46,29.67,29.52,24,8,24,0.01
2013-7-20,82.4,68.3,58.6,60.9,57.4,55.0,90,69,44,29.59,29.45,28,12,28,0.18
2013-7-21,83.8,69.3,57.2,59.1,56.1,53.7,91,65,41,29.50,29.42,30,12,30,0.04
2013-7-22,86.7,70.6,59.0,58.1,55.9,49.2,88,63,32,29.56,29.47,26,12,26,0.01
2013-7-23,89.6,74.1,59.9,61.8,57.4,54.1,84,59,33,29.61,29.47,21,5,21,0.00
2013-7-24,91.4,76.9,63.3,60.6,57.4,46.8,78,54,23,29.59,29.51,25,8,25,0.00
2013-7-25,89.6,76.2,62.8,59.0,56.7,53.2,75,53,32,29.62,29.56,24,10,24,0.00
2013-7-26,90.0,74.6,60.8,58.3,55.4,50.7,74,53,32,29.68,29.59,27,8,27,0.00
2013-7-27,78.8,68.2,56.7,52.1,49.3,44.2,77,53,34,29.71,29.54,28,13,28,0.12
2013-7-28,74.8,64.5,55.8,53.6,51.3,48.9,83,64,45,29.58,29.49,26,13,26,0.08
2013-7-29,81.3,66.2,56.8,55.4,52.2,43.4,83,63,27,29.57,29.47,26,10,26,0.02
2013-7-30,85.5,70.6,59.5,57.0,55.2,49.3,86,61,31,29.68,29.57,21,10,21,0.00
2013-7-31,78.1,68.6,62.2,61.5,57.1,53.6,80,67,54,29.67,29.54,21,6,21,0.00
2013-8-1,71.6,65.2,59.9,58.5,54.2,51.8,84,68,54,29.66,29.58,27,11,27,0.04
2013-8-2,68.7,64.0,59.7,54.7,52.1,49.0,73,65,59,29.70,29.65,24,8,24,0.00
2013-8-3,82.2,69.3,56.7,59.1,55.8,52.1,88,65,42,29.69,29.56,16,4,16,0.00
2013-8-4,91.2,74.9,57.9,62.9,57.4,50.5,86,58,27,29.64,29.47,13,4,13,0.00
2013-8-5,90.9,76.1,62.8,62.4,60.1,57.4,83,60,34,29.58,29.46,21,6,21,0.00
2013-8-6,91.0,76.8,62.8,60.9,55.0,41.7,80,52,22,29.57,29.46,21,6,21,0.00
2013-8-7,89.1,75.3,61.7,56.9,54.6,51.1,71,50,32,29.58,29.47,23,10,23,0.00
2013-8-8,79.5,70.6,62.8,62.0,58.0,54.7,77,65,52,29.57,29.45,30,12,30,0.13
2013-8-9,79.9,71.1,63.9,62.1,59.8,58.3,83,69,52,29.51,29.36,27,7,27,0.07
2013-8-10,77.5,69.0,62.6,62.0,60.9,59.3,93,76,58,29.59,29.50,14,7,14,0.04
2013-8-11,81.5,70.3,62.8,60.2,57.5,52.4,82,66,37,29.63,29.54,17,8,17,0.00
2013-8-12,80.2,69.0,58.5,59.2,56.8,54.2,89,67,45,29.63,29.55,17,7,17,0.00
2013-8-13,86.5,71.1,57.6,57.9,55.1,51.1,88,60,30,29.67,29.51,12,5,12,0.00
2013-8-14,83.1,72.0,60.6,58.2,53.0,45.3,71,53,32,29.55,29.49,10,4,10,0.00
2013-8-15,81.7,73.4,67.3,62.2,58.7,52.7,72,60,46,29.55,29.50,14,6,14,0.00
2013-8-16,80.6,73.8,64.9,65.8,63.1,60.9,92,70,54,29.60,29.54,16,4,16,0.13
2013-8-17,82.8,72.7,63.0,61.7,57.1,51.8,77,60,42,29.66,29.58,22,7,22,0.00
2013-8-18,84.2,72.6,61.5,60.0,57.3,54.2,88,61,38,29.70,29.59,20,9,20,0.00
2013-8-19,83.3,71.9,61.5,59.8,55.9,50.7,83,60,39,29.66,29.58,21,8,21,0.00
2013-8-20,83.7,70.0,58.8,58.2,55.2,52.9,85,62,39,29.69,29.54,21,8,21,0.00
2013-8-21,90.3,72.9,55.4,56.2,48.9,39.3,76,48,21,29.64,29.48,14,3,14,0.00
2013-8-22,80.2,70.3,61.7,59.5,53.3,45.7,66,55,44,29.52,29.43,14,3,14,0.01
2013-8-23,75.6,68.5,63.7,62.0,57.8,53.4,90,70,46,29.51,29.44,21,8,21,0.17
2013-8-24,77.4,68.0,61.3,57.1,54.6,51.4,82,64,44,29.49,29.42,22,8,22,0.00
2013-8-25,67.5,62.2,58.6,59.7,55.7,51.8,93,80,65,29.53,29.47,21,4,21,0.15
2013-8-26,77.5,65.3,57.2,60.8,56.2,49.3,97,75,45,29.57,29.50,15,4,15,0.00
2013-8-27,86.4,69.5,54.1,60.6,55.0,49.8,87,62,35,29.58,29.36,14,4,14,0.00
2013-8-28,82.8,72.7,63.3,61.9,59.2,56.6,84,64,46,29.50,29.41,17,6,17,0.00
2013-8-29,80.2,70.4,64.9,65.2,60.3,56.7,91,71,49,29.66,29.44,21,5,21,0.12
2013-8-30,81.5,71.1,64.0,62.0,58.9,54.1,86,67,42,29.75,29.62,18,6,18,0.00
2013-8-31,91.2,72.5,55.4,57.7,53.8,50.0,83,56,26,29.66,29.42,15,4,15,0.00
2013-9-1,83.5,74.7,63.5,60.0,57.3,54.7,75,56,43,29.48,29.36,21,8,21,0.00
2013-9-2,82.2,72.7,63.9,58.5,56.3,53.7,74,57,42,29.50,29.42,22,8,22,0.00
2013-9-3,80.1,70.8,64.4,59.8,57.0,54.3,77,62,46,29.58,29.49,24,10,24,0.00
2013-9-4,74.8,67.7,61.5,59.3,57.1,55.0,81,69,57,29.59,29.53,26,9,26,0.01
2013-9-5,73.2,65.5,58.3,60.0,57.7,54.7,92,76,61,29.61,29.47,25,10,25,0.25
2013-9-6,69.4,61.4,57.6,59.8,56.3,54.5,97,84,63,29.73,29.60,16,4,16,0.37
2013-9-7,82.0,66.2,52.7,57.8,55.1,51.5,96,71,37,29.71,29.55,11,2,11,0.00
2013-9-8,86.0,70.9,57.4,62.3,56.8,51.6,85,63,34,29.69,29.56,14,4,14,0.00
2013-9-9,81.3,70.3,58.3,63.6,59.9,55.0,90,71,52,29.61,29.47,20,5,20,0.00
2013-9-10,94.1,75.7,60.1,62.4,56.9,45.0,89,58,24,29.58,29.46,18,4,18,0.00
2013-9-11,96.6,78.1,62.6,60.3,54.6,51.3,71,47,24,29.60,29.49,14,3,14,0.00
2013-9-12,83.7,72.6,62.8,63.6,58.9,52.3,75,63,49,29.59,29.44,24,6,24,0.00
2013-9-13,79.9,70.6,63.7,63.2,61.3,59.9,88,73,53,29.50,29.36,27,12,27,0.05
2013-9-14,92.1,71.5,59.9,63.5,60.7,58.0,94,72,34,29.44,29.28,12,3,12,0.00
2013-9-15,73.2,67.3,63.3,62.5,59.4,54.8,88,76,62,29.45,29.29,31,9,31,0.32
2013-9-16,70.5,64.3,60.3,55.6,53.6,50.6,82,69,55,29.56,29.44,17,7,17,0.00
2013-9-17,67.8,60.6,57.2,55.6,51.3,46.7,89,72,51,29.54,29.41,30,8,30,0.05
2013-9-18,70.2,61.0,52.3,50.8,48.4,45.5,78,64,45,29.67,29.55,21,7,21,0.00
2013-9-19,81.5,61.6,45.1,49.4,43.0,37.5,87,57,21,29.66,29.42,13,3,13,0.00
2013-9-20,77.4,61.7,49.6,54.5,47.1,41.7,95,61,30,29.42,29.23,29,5,29,0.09
2013-9-21,69.4,59.5,54.9,55.0,53.1,50.3,95,80,57,29.36,29.27,22,4,22,0.01
2013-9-22,59.4,56.0,53.8,54.0,51.2,47.6,95,84,68,29.43,29.29,21,5,21,0.22
2013-9-23,59.9,56.5,53.1,53.9,51.1,48.6,96,82,69,29.58,29.43,19,5,19,0.05
2013-9-24,59.7,53.2,50.0,51.2,47.9,44.3,94,83,60,29.57,29.43,16,5,16,0.01
2013-9-25,60.4,53.5,49.5,47.8,45.8,43.4,87,75,61,29.58,29.42,22,7,22,0.04
2013-9-26,65.1,54.7,45.9,48.2,45.2,40.8,89,71,52,29.73,29.58,19,5,19,0.00
2013-9-27,57.9,52.9,50.0,50.8,48.0,45.5,94,84,68,29.73,29.52,12,4,12,0.22
2013-9-28,61.7,54.9,49.8,58.4,52.4,46.3,96,91,80,29.52,29.08,18,2,18,1.26
2013-9-29,54.0,51.1,49.5,52.0,48.6,47.1,95,91,85,29.30,28.98,25,3,25,1.03
2013-9-30,56.3,50.8,48.0,50.2,46.3,42.9,92,85,76,29.58,29.16,22,5,22,0.54
2013-10-1,55.6,48.7,45.5,48.1,45.6,43.0,95,90,72,29.79,29.57,14,3,14,0.48
2013-10-2,55.6,47.4,43.2,46.0,43.0,41.1,95,85,63,29.78,29.63,14,3,14,0.01
2013-10-3,59.0,49.6,40.8,45.2,42.2,37.1,89,77,58,30.02,29.74,20,6,20,0.00
2013-10-4,68.4,50.2,37.4,47.9,41.0,35.6,94,74,38,30.10,29.97,10,2,10,0.00
2013-10-5,71.8,52.6,39.6,45.6,41.6,37.2,94,70,32,30.00,29.80,12,2,12,0.00
2013-10-6,72.0,54.2,40.3,47.5,42.9,37.9,94,69,36,29.82,29.56,8,2,8,0.00
2013-10-7,56.5,53.0,50.4,50.7,46.8,42.9,95,80,63,29.68,29.54,21,6,21,0.15
2013-10-8,54.0,49.6,43.5,48.2,44.1,40.2,89,81,75,29.67,29.54,23,7,23,0.13
2013-10-9,59.9,47.5,37.2,46.1,41.5,34.6,95,81,53,29.71,29.55,8,2,8,0.00
2013-10-10,60.8,52.1,46.0,46.9,44.2,40.7,89,75,54,29.65,29.51,22,8,22,0.01
2013-10-11,57.6,50.8,44.4,46.9,43.2,40.2,88,76,55,29.73,29.65,15,4,15,0.00
2013-10-12,52.3,49.2,45.1,46.5,44.4,42.1,90,83,76,29.77,29.64,14,4,14,0.00
2013-10-13,65.8,49.0,37.6,46.6,40.8,35.2,93,76,37,29.91,29.77,6,2,8,0.18
2013-10-14,65.7,49.6,38.5,45.9,39.7,36.1,93,72,35,30.00,29.91,11,2,11,0.00
2013-10-15,65.5,48.8,36.5,42.5,37.6,32.7,91,69,34,30.01,29.77,11,2,11,0.00
2013-10-16,66.2,49.8,38.1,43.8,38.8,34.5,91,69,37,29.79,29.72,9,2,9,0.00
2013-10-17,68.0,50.9,39.4,45.2,40.4,36.3,92,70,38,29.88,29.79,9,2,9,0.00
2013-10-18,68.5,50.7,38.1,44.9,39.7,35.7,92,69,35,29.89,29.76,11,2,11,0.00
2013-10-19,68.2,51.1,37.9,46.6,41.3,35.3,92,71,43,29.78,29.65,14,2,14,0.00
2013-10-20,72.9,54.0,41.5,48.6,44.2,38.5,92,72,38,29.79,29.68,8,2,8,0.00
2013-10-21,73.9,56.2,44.1,48.6,44.7,40.7,89,68,39,29.79,29.68,11,2,11,0.00
2013-10-22,73.6,55.7,43.9,49.1,44.6,40.0,87,69,39,29.78,29.64,11,2,11,0.00
2013-10-23,71.6,54.9,43.2,50.3,45.3,40.7,93,72,43,29.73,29.63,8,2,8,0.00
2013-10-24,70.0,53.8,42.4,49.9,45.7,40.8,94,76,46,29.72,29.63,8,2,8,0.00
2013-10-25,66.6,51.6,42.4,50.4,46.3,41.4,96,83,54,29.85,29.71,8,2,8,0.00
2013-10-26,64.0,50.9,42.6,50.3,46.0,41.5,96,85,58,29.89,29.72,7,2,7,0.00
2013-10-27,52.5,48.7,46.2,46.4,44.6,41.1,95,86,73,29.72,29.40,23,5,23,0.08
2013-10-28,57.2,49.3,37.9,44.3,29.7,22.6,85,49,29,29.56,29.45,27,6,27,0.07
2013-10-29,57.4,41.9,31.8,54.0,28.7,23.8,97,62,29,29.66,29.55,10,2,10,0.00
2013-10-30,59.0,46.7,33.6,38.2,32.6,24.9,82,60,32,29.73,29.64,21,5,21,0.00
2013-10-31,56.3,52.5,50.2,48.3,45.0,36.2,88,76,53,29.85,29.71,16,6,16,0.00
2013-11-1,63.9,51.1,40.1,47.8,43.9,38.2,94,78,48,29.88,29.52,9,2,9,0.00
2013-11-2,53.4,47.3,39.4,48.6,42.1,35.6,95,82,62,29.59,29.29,39,11,39,2.28
2013-11-3,47.8,42.9,40.6,39.7,37.0,33.5,87,79,66,29.69,29.57,21,8,21,0.14
2013-11-4,43.2,41.0,37.6,40.5,37.4,31.7,92,87,74,29.77,29.68,8,2,8,0.04
2013-11-5,50.0,44.7,41.0,47.3,42.3,38.6,94,91,87,29.82,29.69,9,2,9,0.09
2013-11-6,49.3,46.9,43.5,46.4,44.3,41.1,94,90,86,29.92,29.79,8,2,8,0.32
2013-11-7,50.4,45.7,42.3,44.9,41.2,37.9,93,85,63,29.79,29.49,36,7,36,2.02
2013-11-8,52.5,46.7,40.8,43.6,41.3,37.7,89,82,68,29.76,29.63,15,4,15,0.08
2013-11-9,47.5,43.2,38.7,41.5,39.1,36.4,94,85,77,29.75,29.69,8,1,8,0.00
2013-11-10,52.2,45.9,41.7,42.9,40.3,38.3,89,81,66,29.82,29.71,7,1,7,0.00
2013-11-11,48.7,46.2,43.3,41.4,40.2,39.1,85,80,73,29.93,29.81,12,2,12,0.00
2013-11-12,52.9,47.7,44.2,47.1,43.5,40.1,91,85,72,29.99,29.81,5,2,5,0.05
2013-11-13,60.3,50.8,40.1,47.7,44.0,36.1,91,79,53,30.03,29.86,14,4,14,0.01
2013-11-14,52.0,45.2,38.3,41.3,38.5,35.1,88,78,65,29.86,29.63,21,6,21,0.00
2013-11-15,46.6,44.9,43.7,40.6,36.8,34.3,87,73,67,29.64,29.02,34,9,34,0.28
2013-11-16,46.6,44.1,40.5,42.1,36.2,33.2,88,74,66,29.39,28.99,33,12,33,0.76
2013-11-17,48.6,45.8,43.2,43.6,40.9,36.5,86,83,72,29.56,29.39,16,4,16,0.25
2013-11-18,53.1,47.5,43.9,45.5,42.8,39.7,89,84,74,29.55,29.29,8,2,8,0.14
2013-11-19,51.3,47.8,40.3,47.8,41.2,26.0,89,78,56,29.53,29.27,22,6,22,0.27
2013-11-20,44.2,35.7,25.5,31.8,20.6,8.7,80,56,27,30.05,29.53,18,4,19,0.00
2013-11-21,41.7,29.3,20.7,19.7,11.6,0.9,68,50,22,30.30,30.05,14,2,14,0.00
2013-11-22,39.6,28.8,20.1,19.6,13.5,9.8,68,53,33,30.36,30.23,11,3,11,0.00
2013-11-23,42.4,30.1,21.7,24.6,15.8,11.7,66,56,29,30.24,29.97,13,2,13,0.00
2013-11-24,41.7,30.7,23.4,24.7,18.8,13.7,73,61,48,30.01,29.88,11,2,11,0.00
2013-11-25,43.2,32.0,23.9,26.5,20.9,17.2,76,64,48,30.06,29.99,9,2,9,0.00
2013-11-26,40.3,31.5,25.3,29.1,22.7,18.6,80,70,59,30.00,29.81,6,2,6,0.00
2013-11-27,42.4,33.0,27.9,29.4,24.3,20.7,79,70,55,29.81,29.72,9,2,9,0.00
2013-11-28,45.1,33.2,26.4,30.8,24.9,20.4,82,72,55,29.84,29.75,7,2,7,0.00
2013-11-29,42.1,34.2,26.8,37.6,28.3,21.0,85,79,73,29.90,29.83,7,2,10,0.01
2013-11-30,52.3,45.4,41.2,41.3,38.7,36.5,85,78,66,29.93,29.79,12,3,12,0.07
2013-12-1,54.7,49.8,43.7,48.4,45.3,39.5,89,84,77,29.79,29.42,28,7,28,2.67
2013-12-2,48.9,40.0,35.6,44.3,32.4,26.8,86,74,65,29.59,29.40,36,11,36,0.99
2013-12-3,38.7,32.2,24.3,28.4,20.6,11.8,82,63,38,29.88,29.59,14,3,14,0.00
2013-12-4,32.9,24.7,17.4,18.5,11.2,5.7,75,58,32,29.95,29.87,16,3,16,0.00
2013-12-5,25.0,18.8,13.6,12.9,8.0,5.2,72,62,51,29.93,29.83,9,3,9,0.00
2013-12-6,19.2,18.5,17.8,10.6,7.7,2.2,71,62,48,29.87,29.72,14,4,14,0.00
2013-12-7,23.2,15.2,6.6,2.2,-3.7,-7.4,62,43,28,30.04,29.75,24,4,24,0.00
2013-12-8,18.7,9.7,3.9,4.0,-1.6,-6.3,65,60,43,30.19,30.02,11,2,11,0.00
2013-12-9,33.6,21.1,6.8,25.4,11.1,-2.7,73,65,56,30.18,29.99,18,5,18,0.00
2013-12-10,36.9,32.6,26.4,28.9,26.1,19.0,83,77,71,30.03,29.97,19,6,19,0.01
2013-12-11,33.6,27.1,23.0,20.2,17.5,14.9,75,67,53,30.04,29.92,13,4,13,0.01
2013-12-12,32.0,25.5,19.0,24.0,17.9,11.6,79,72,60,29.92,29.74,7,1,7,0.00
2013-12-13,45.9,37.8,29.3,41.1,33.2,23.2,89,83,76,30.02,29.79,14,3,14,0.01
2013-12-14,44.1,39.2,34.7,38.6,35.2,30.7,90,86,78,30.02,29.93,18,3,18,0.00
2013-12-15,51.1,45.2,40.6,42.6,39.5,36.0,85,80,72,30.02,29.94,17,7,18,0.00
2013-12-16,52.2,42.5,34.9,40.2,36.5,30.0,88,80,59,30.03,29.89,14,3,14,0.00
2013-12-17,40.1,35.1,30.0,35.0,30.3,26.3,87,82,75,29.89,29.68,24,4,24,0.01
2013-12-18,46.4,39.9,34.0,36.5,33.2,23.9,86,77,62,29.68,29.55,19,7,22,0.00
2013-12-19,40.8,32.2,26.8,26.6,23.2,17.7,82,70,46,29.88,29.66,10,2,10,0.00
2013-12-20,48.9,38.3,31.3,39.8,30.6,19.0,86,74,50,29.73,29.32,35,10,35,0.92
2013-12-21,50.7,47.3,45.0,40.1,38.7,37.5,81,72,65,29.74,29.35,29,7,29,0.05
2013-12-22,52.9,48.0,44.8,43.0,41.1,38.0,82,77,65,29.89,29.73,18,6,18,0.00
2013-12-23,54.5,48.2,42.3,44.6,40.2,31.9,83,74,60,30.08,29.74,40,9,40,1.67
2013-12-24,48.7,38.6,28.8,35.3,31.0,23.2,84,74,56,30.15,30.06,10,2,10,0.00
2013-12-25,40.5,31.5,27.0,31.0,25.4,21.0,83,78,67,30.11,29.98,4,1,4,0.00
2013-12-26,41.0,30.2,25.5,32.0,24.5,20.2,85,79,68,29.99,29.86,5,1,5,0.01
2013-12-27,44.1,32.4,25.7,37.8,27.4,21.0,86,82,76,29.89,29.73,16,3,16,0.00
2013-12-28,46.9,37.4,29.3,36.0,31.3,24.5,85,79,64,30.07,29.87,17,3,17,0.00
2013-12-29,36.0,31.3,27.5,31.1,27.0,22.5,86,84,81,30.06,29.81,7,1,7,0.00
2013-12-30,37.9,34.0,32.4,32.5,28.8,27.6,84,81,73,29.83,29.74,9,2,9,0.01
2013-12-31,49.5,43.0,34.2,36.8,34.4,29.3,86,72,59,29.91,29.75,15,4,15,0.01
2014-1-1,45.0,37.6,33.1,36.0,31.9,28.3,87,80,71,30.01,29.91,11,2,11,0.00
2014-1-2,50.9,39.3,33.6,40.0,32.4,28.3,85,76,60,29.93,29.53,24,3,24,0.11